Date,MW,Mvar
01/01/2018 00:15,6.11,-0.99
01/01/2018 00:30,6.76,-0.93
01/01/2018 00:45,6.17,-1.07
01/01/2018 01:00,5.6,-1.05
01/01/2018 01:15,5.01,-1.19
01/01/2018 01:30,4.68,-1.17
01/01/2018 01:45,4.48,-1.21
01/01/2018 02:00,4.24,-1.3
01/01/2018 02:15,4.58,-1.1
01/01/2018 02:30,4.52,-1.2
01/01/2018 02:45,4.15,-1.21
01/01/2018 03:00,3.92,-1.23
01/01/2018 03:15,3.87,-1.24
01/01/2018 03:30,3.92,-1.21
01/01/2018 03:45,3.76,-1.24
01/01/2018 04:00,3.67,-1.28
01/01/2018 04:15,3.45,-1.35
01/01/2018 04:30,3.53,-1.33
01/01/2018 04:45,3.48,-1.33
01/01/2018 05:00,3.58,-1.32
01/01/2018 05:15,3.67,-1.23
01/01/2018 05:30,3.45,-1.32
01/01/2018 05:45,3.46,-1.36
01/01/2018 06:00,3.57,-1.37
01/01/2018 06:15,3.54,-1.35
01/01/2018 06:30,3.64,-1.32
01/01/2018 06:45,3.61,-1.35
01/01/2018 07:00,3.59,-1.36
01/01/2018 07:15,3.75,-1.34
01/01/2018 07:30,3.85,-1.25
01/01/2018 07:45,3.72,-1.31
01/01/2018 08:00,3.52,-1.34
01/01/2018 08:15,3.37,-1.3
01/01/2018 08:30,3.34,-1.33
01/01/2018 08:45,3.35,-1.27
01/01/2018 09:00,3.31,-1.17
01/01/2018 09:15,3.19,-1.24
01/01/2018 09:30,3.1,-1.23
01/01/2018 09:45,3.16,-1.2
01/01/2018 10:00,3.14,-1.19
01/01/2018 10:15,2.82,-1.23
01/01/2018 10:30,2.8,-1.23
01/01/2018 10:45,2.76,-1.16
01/01/2018 11:00,2.64,-1.26
01/01/2018 11:15,2.7,-1.11
01/01/2018 11:30,2.5,-1.19
01/01/2018 11:45,2.4,-1.18
01/01/2018 12:00,2.54,-1.11
01/01/2018 12:15,2.64,-1.03
01/01/2018 12:30,2.65,-0.99
01/01/2018 12:45,2.42,-1.07
01/01/2018 13:00,2.3,-1.09
01/01/2018 13:15,2.44,-0.93
01/01/2018 13:30,2.17,-1.06
01/01/2018 13:45,2.27,-0.97
01/01/2018 14:00,2.38,-0.93
01/01/2018 14:15,2.42,-0.96
01/01/2018 14:30,2.38,-0.99
01/01/2018 14:45,2.57,-0.9
01/01/2018 15:00,2.56,-0.88
01/01/2018 15:15,2.59,-0.93
01/01/2018 15:30,2.74,-0.83
01/01/2018 15:45,2.94,-0.77
01/01/2018 16:00,3.1,-0.76
01/01/2018 16:15,3.28,-0.77
01/01/2018 16:30,3.38,-0.78
01/01/2018 16:45,3.59,-0.7
01/01/2018 17:00,3.69,-0.77
01/01/2018 17:15,3.77,-0.75
01/01/2018 17:30,3.89,-0.75
01/01/2018 17:45,4.06,-0.84
01/01/2018 18:00,4.07,-0.87
01/01/2018 18:15,4.48,-0.75
01/01/2018 18:30,4.48,-0.78
01/01/2018 18:45,4.65,-0.78
01/01/2018 19:00,4.66,-0.81
01/01/2018 19:15,4.82,-0.75
01/01/2018 19:30,4.63,-0.88
01/01/2018 19:45,4.61,-0.88
01/01/2018 20:00,4.68,-0.89
01/01/2018 20:15,4.52,-0.97
01/01/2018 20:30,4.59,-0.95
01/01/2018 20:45,4.49,-0.98
01/01/2018 21:00,4.44,-1.04
01/01/2018 21:15,4.22,-1.13
01/01/2018 21:30,4.23,-1.09
01/01/2018 21:45,4.12,-1.17
01/01/2018 22:00,4.09,-1.16
01/01/2018 22:15,4.71,-1.19
01/01/2018 22:30,5.4,-1.04
01/01/2018 22:45,5.24,-1.03
01/01/2018 23:00,4.83,-1.18
01/01/2018 23:15,5.09,-1.16
01/01/2018 23:30,5.29,-1.17
01/01/2018 23:45,5.42,-1.15
02/01/2018 00:00,5.46,-1.21
02/01/2018 00:15,5.89,-1.1
02/01/2018 00:30,6.56,-1
02/01/2018 00:45,6.02,-1.1
02/01/2018 01:00,5.42,-1.15
02/01/2018 01:15,4.91,-1.24
02/01/2018 01:30,4.71,-1.21
02/01/2018 01:45,4.31,-1.29
02/01/2018 02:00,3.96,-1.34
02/01/2018 02:15,4.35,-1.22
02/01/2018 02:30,4.54,-1.2
02/01/2018 02:45,4.17,-1.17
02/01/2018 03:00,4.04,-1.19
02/01/2018 03:15,3.83,-1.24
02/01/2018 03:30,3.66,-1.29
02/01/2018 03:45,3.73,-1.28
02/01/2018 04:00,3.68,-1.31
02/01/2018 04:15,3.82,-1.21
02/01/2018 04:30,3.78,-1.18
02/01/2018 04:45,3.74,-1.13
02/01/2018 05:00,3.9,-1.06
02/01/2018 05:15,3.9,-0.99
02/01/2018 05:30,3.9,-1.01
02/01/2018 05:45,4.07,-0.98
02/01/2018 06:00,4.19,-0.9
02/01/2018 06:15,4.38,-0.87
02/01/2018 06:30,4.36,-0.88
02/01/2018 06:45,4.62,-0.76
02/01/2018 07:00,4.76,-0.75
02/01/2018 07:15,4.85,-0.78
02/01/2018 07:30,4.95,-0.73
02/01/2018 07:45,5.08,-0.56
02/01/2018 08:00,4.93,-0.57
02/01/2018 08:15,4.42,-0.58
02/01/2018 08:30,4.39,-0.44
02/01/2018 08:45,4.56,-0.31
02/01/2018 09:00,4.34,-0.38
02/01/2018 09:15,4.35,-0.39
02/01/2018 09:30,3.98,-0.46
02/01/2018 09:45,4.01,-0.5
02/01/2018 10:00,4.08,-0.42
02/01/2018 10:15,4.16,-0.4
02/01/2018 10:30,4.17,-0.4
02/01/2018 10:45,4.41,-0.31
02/01/2018 11:00,4.14,-0.36
02/01/2018 11:15,3.98,-0.34
02/01/2018 11:30,3.77,-0.42
02/01/2018 11:45,3.85,-0.31
02/01/2018 12:00,3.86,-0.4
02/01/2018 12:15,3.69,-0.31
02/01/2018 12:30,3.51,-0.34
02/01/2018 12:45,3.37,-0.42
02/01/2018 13:00,3.35,-0.36
02/01/2018 13:15,3.22,-0.43
02/01/2018 13:30,3.31,-0.36
02/01/2018 13:45,3.31,-0.34
02/01/2018 14:00,3.3,-0.38
02/01/2018 14:15,2.93,-0.53
02/01/2018 14:30,3.04,-0.5
02/01/2018 14:45,3.02,-0.45
02/01/2018 15:00,3.07,-0.49
02/01/2018 15:15,3.33,-0.43
02/01/2018 15:30,3.11,-0.48
02/01/2018 15:45,3.18,-0.46
02/01/2018 16:00,3.18,-0.57
02/01/2018 16:15,3.23,-0.64
02/01/2018 16:30,3.31,-0.66
02/01/2018 16:45,3.63,-0.48
02/01/2018 17:00,3.62,-0.64
02/01/2018 17:15,3.61,-0.72
02/01/2018 17:30,3.87,-0.75
02/01/2018 17:45,4.08,-0.68
02/01/2018 18:00,4.16,-0.67
02/01/2018 18:15,4.61,-0.64
02/01/2018 18:30,4.55,-0.73
02/01/2018 18:45,4.77,-0.67
02/01/2018 19:00,4.7,-0.71
02/01/2018 19:15,4.81,-0.74
02/01/2018 19:30,4.75,-0.79
02/01/2018 19:45,4.88,-0.68
02/01/2018 20:00,4.77,-0.85
02/01/2018 20:15,4.75,-0.86
02/01/2018 20:30,4.75,-0.82
02/01/2018 20:45,4.67,-0.86
02/01/2018 21:00,4.59,-0.95
02/01/2018 21:15,4.7,-0.92
02/01/2018 21:30,4.58,-0.94
02/01/2018 21:45,4.62,-0.95
02/01/2018 22:00,4.37,-1.04
02/01/2018 22:15,5.09,-0.99
02/01/2018 22:30,5.81,-0.93
02/01/2018 22:45,5.46,-0.97
02/01/2018 23:00,5.06,-1.1
02/01/2018 23:15,5.29,-1.18
02/01/2018 23:30,5.46,-1.13
02/01/2018 23:45,5.62,-1.2
03/01/2018 00:00,5.68,-1.19
03/01/2018 00:15,6.01,-1.18
03/01/2018 00:30,6.66,-1.03
03/01/2018 00:45,6.11,-1.15
03/01/2018 01:00,5.63,-1.16
03/01/2018 01:15,5.06,-1.33
03/01/2018 01:30,4.73,-1.28
03/01/2018 01:45,4.55,-1.32
03/01/2018 02:00,4.4,-1.29
03/01/2018 02:15,4.87,-1.12
03/01/2018 02:30,4.92,-1.16
03/01/2018 02:45,4.24,-1.31
03/01/2018 03:00,4.13,-1.29
03/01/2018 03:15,4.06,-1.32
03/01/2018 03:30,3.95,-1.34
03/01/2018 03:45,4.01,-1.22
03/01/2018 04:00,3.92,-1.27
03/01/2018 04:15,4.05,-1.23
03/01/2018 04:30,4.02,-1.23
03/01/2018 04:45,4.12,-1.21
03/01/2018 05:00,4.21,-1.09
03/01/2018 05:15,4.06,-1.13
03/01/2018 05:30,4.27,-1.03
03/01/2018 05:45,4.36,-1.08
03/01/2018 06:00,4.45,-0.99
03/01/2018 06:15,4.68,-1
03/01/2018 06:30,4.66,-1.02
03/01/2018 06:45,4.87,-0.93
03/01/2018 07:00,5.41,-0.69
03/01/2018 07:15,5.34,-0.77
03/01/2018 07:30,5.56,-0.65
03/01/2018 07:45,5.4,-0.64
03/01/2018 08:00,5.27,-0.61
03/01/2018 08:15,4.75,-0.65
03/01/2018 08:30,4.84,-0.46
03/01/2018 08:45,4.63,-0.44
03/01/2018 09:00,4.59,-0.45
03/01/2018 09:15,4.5,-0.41
03/01/2018 09:30,4.34,-0.46
03/01/2018 09:45,4.39,-0.37
03/01/2018 10:00,4.26,-0.38
03/01/2018 10:15,4.16,-0.38
03/01/2018 10:30,4,-0.38
03/01/2018 10:45,3.97,-0.3
03/01/2018 11:00,4.08,-0.22
03/01/2018 11:15,3.84,-0.33
03/01/2018 11:30,3.88,-0.25
03/01/2018 11:45,3.84,-0.29
03/01/2018 12:00,3.76,-0.33
03/01/2018 12:15,3.76,-0.33
03/01/2018 12:30,3.79,-0.29
03/01/2018 12:45,3.68,-0.36
03/01/2018 13:00,3.71,-0.33
03/01/2018 13:15,3.73,-0.22
03/01/2018 13:30,3.62,-0.27
03/01/2018 13:45,3.5,-0.3
03/01/2018 14:00,3.36,-0.35
03/01/2018 14:15,3.4,-0.36
03/01/2018 14:30,3.42,-0.36
03/01/2018 14:45,3.44,-0.38
03/01/2018 15:00,3.56,-0.38
03/01/2018 15:15,3.6,-0.32
03/01/2018 15:30,3.45,-0.48
03/01/2018 15:45,3.52,-0.48
03/01/2018 16:00,3.71,-0.46
03/01/2018 16:15,3.74,-0.51
03/01/2018 16:30,3.82,-0.52
03/01/2018 16:45,4.06,-0.47
03/01/2018 17:00,4.21,-0.53
03/01/2018 17:15,4.27,-0.5
03/01/2018 17:30,4.29,-0.58
03/01/2018 17:45,4.45,-0.58
03/01/2018 18:00,4.81,-0.49
03/01/2018 18:15,4.95,-0.56
03/01/2018 18:30,5.17,-0.47
03/01/2018 18:45,5.3,-0.52
03/01/2018 19:00,5.23,-0.57
03/01/2018 19:15,5.28,-0.58
03/01/2018 19:30,5.3,-0.58
03/01/2018 19:45,5.31,-0.58
03/01/2018 20:00,5.2,-0.71
03/01/2018 20:15,5.22,-0.62
03/01/2018 20:30,5.15,-0.69
03/01/2018 20:45,5.17,-0.66
03/01/2018 21:00,5.01,-0.71
03/01/2018 21:15,5.04,-0.68
03/01/2018 21:30,4.98,-0.78
03/01/2018 21:45,4.87,-0.76
03/01/2018 22:00,4.78,-0.84
03/01/2018 22:15,5.45,-0.84
03/01/2018 22:30,6.02,-0.79
03/01/2018 22:45,5.47,-1
03/01/2018 23:00,5.31,-0.96
03/01/2018 23:15,5.51,-1
03/01/2018 23:30,5.6,-1.04
03/01/2018 23:45,5.71,-1.05
04/01/2018 00:00,5.69,-1.09
04/01/2018 00:15,6.03,-1.07
04/01/2018 00:30,6.43,-1.07
04/01/2018 00:45,5.95,-1.15
04/01/2018 01:00,5.34,-1.19
04/01/2018 01:15,4.89,-1.3
04/01/2018 01:30,4.54,-1.34
04/01/2018 01:45,4.33,-1.3
04/01/2018 02:00,4.21,-1.3
04/01/2018 02:15,4.4,-1.21
04/01/2018 02:30,4.69,-1.15
04/01/2018 02:45,4.12,-1.2
04/01/2018 03:00,4.13,-1.18
04/01/2018 03:15,3.92,-1.23
04/01/2018 03:30,3.84,-1.25
04/01/2018 03:45,3.88,-1.19
04/01/2018 04:00,3.91,-1.2
04/01/2018 04:15,3.93,-1.1
04/01/2018 04:30,4.05,-1.08
04/01/2018 04:45,4.05,-1.07
04/01/2018 05:00,4,-1.1
04/01/2018 05:15,4.21,-0.98
04/01/2018 05:30,4.13,-1
04/01/2018 05:45,4.01,-1.1
04/01/2018 06:00,4.08,-1.09
04/01/2018 06:15,4.18,-1.04
04/01/2018 06:30,4.57,-0.92
04/01/2018 06:45,4.5,-0.98
04/01/2018 07:00,4.74,-0.89
04/01/2018 07:15,5.15,-0.74
04/01/2018 07:30,5.27,-0.68
04/01/2018 07:45,5.02,-0.74
04/01/2018 08:00,5.03,-0.64
04/01/2018 08:15,4.62,-0.49
04/01/2018 08:30,4.76,-0.43
04/01/2018 08:45,4.57,-0.38
04/01/2018 09:00,4.43,-0.38
04/01/2018 09:15,4.25,-0.47
04/01/2018 09:30,4.44,-0.31
04/01/2018 09:45,4.25,-0.4
04/01/2018 10:00,4.29,-0.26
04/01/2018 10:15,4.21,-0.2
04/01/2018 10:30,4.17,-0.19
04/01/2018 10:45,4.31,-0.1
04/01/2018 11:00,4.3,-0.14
04/01/2018 11:15,4.18,-0.17
04/01/2018 11:30,4.21,-0.12
04/01/2018 11:45,4.21,-0.06
04/01/2018 12:00,4.28,-0.06
04/01/2018 12:15,4.09,-0.13
04/01/2018 12:30,4.12,-0.06
04/01/2018 12:45,4.01,-0.11
04/01/2018 13:00,4.04,-0.16
04/01/2018 13:15,4.15,-0.08
04/01/2018 13:30,4.09,-0.12
04/01/2018 13:45,4.07,-0.21
04/01/2018 14:00,4.06,-0.19
04/01/2018 14:15,4.13,-0.18
04/01/2018 14:30,4.19,-0.06
04/01/2018 14:45,4.38,-0.03
04/01/2018 15:00,4.33,-0.12
04/01/2018 15:15,4.38,-0.13
04/01/2018 15:30,4.76,-0.12
04/01/2018 15:45,4.82,-0.05
04/01/2018 16:00,4.97,-0.12
04/01/2018 16:15,5.27,-0.01
04/01/2018 16:30,5.17,-0.19
04/01/2018 16:45,5.25,-0.14
04/01/2018 17:00,5.38,-0.3
04/01/2018 17:15,5.53,-0.19
04/01/2018 17:30,5.82,-0.2
04/01/2018 17:45,6.24,-0.11
04/01/2018 18:00,6.55,-0.05
04/01/2018 18:15,6.69,-0.07
04/01/2018 18:30,6.72,-0.02
04/01/2018 18:45,6.98,0.06
04/01/2018 19:00,6.88,-0.03
04/01/2018 19:15,6.92,0
04/01/2018 19:30,6.82,-0.07
04/01/2018 19:45,6.74,-0.11
04/01/2018 20:00,6.78,-0.09
04/01/2018 20:15,6.6,-0.2
04/01/2018 20:30,6.48,-0.21
04/01/2018 20:45,6.43,-0.26
04/01/2018 21:00,6.23,-0.32
04/01/2018 21:15,6.16,-0.29
04/01/2018 21:30,6.07,-0.36
04/01/2018 21:45,5.91,-0.45
04/01/2018 22:00,5.74,-0.59
04/01/2018 22:15,6.39,-0.46
04/01/2018 22:30,6.94,-0.42
04/01/2018 22:45,6.46,-0.52
04/01/2018 23:00,6.16,-0.56
04/01/2018 23:15,6.3,-0.67
04/01/2018 23:30,6.64,-0.57
04/01/2018 23:45,6.48,-0.65
05/01/2018 00:00,6.47,-0.73
05/01/2018 00:15,6.83,-0.64
05/01/2018 00:30,7.1,-0.62
05/01/2018 00:45,6.55,-0.72
05/01/2018 01:00,5.91,-0.89
05/01/2018 01:15,5.45,-0.87
05/01/2018 01:30,5.09,-0.93
05/01/2018 01:45,4.79,-1.04
05/01/2018 02:00,4.63,-1.07
05/01/2018 02:15,5.08,-0.9
05/01/2018 02:30,5.19,-0.86
05/01/2018 02:45,4.79,-0.87
05/01/2018 03:00,4.71,-0.94
05/01/2018 03:15,4.56,-0.95
05/01/2018 03:30,4.45,-0.99
05/01/2018 03:45,4.38,-0.98
05/01/2018 04:00,4.42,-0.93
05/01/2018 04:15,4.43,-0.88
05/01/2018 04:30,4.45,-0.86
05/01/2018 04:45,4.44,-0.86
05/01/2018 05:00,4.48,-0.91
05/01/2018 05:15,4.58,-0.9
05/01/2018 05:30,4.6,-0.84
05/01/2018 05:45,4.81,-0.74
05/01/2018 06:00,5.01,-0.62
05/01/2018 06:15,5.11,-0.69
05/01/2018 06:30,5.13,-0.58
05/01/2018 06:45,5.18,-0.66
05/01/2018 07:00,5.44,-0.61
05/01/2018 07:15,5.55,-0.62
05/01/2018 07:30,5.68,-0.47
05/01/2018 07:45,5.63,-0.51
05/01/2018 08:00,5.44,-0.43
05/01/2018 08:15,5.15,-0.29
05/01/2018 08:30,5.14,-0.28
05/01/2018 08:45,5.11,-0.19
05/01/2018 09:00,5.25,-0.11
05/01/2018 09:15,5.11,-0.04
05/01/2018 09:30,5,-0.05
05/01/2018 09:45,5.07,0.01
05/01/2018 10:00,4.93,0.04
05/01/2018 10:15,4.76,-0.07
05/01/2018 10:30,4.97,0.07
05/01/2018 10:45,5.08,0.11
05/01/2018 11:00,4.99,0.04
05/01/2018 11:15,5.04,0.11
05/01/2018 11:30,4.93,0.01
05/01/2018 11:45,5.24,0.13
05/01/2018 12:00,5.43,0.31
05/01/2018 12:15,5.41,0.25
05/01/2018 12:30,5.43,0.29
05/01/2018 12:45,5.35,0.22
05/01/2018 13:00,5.54,0.23
05/01/2018 13:15,5.57,0.18
05/01/2018 13:30,5.64,0.14
05/01/2018 13:45,5.94,0.34
05/01/2018 14:00,5.99,0.38
05/01/2018 14:15,6.13,0.43
05/01/2018 14:30,6.23,0.35
05/01/2018 14:45,6.34,0.36
05/01/2018 15:00,6.44,0.42
05/01/2018 15:15,6.67,0.37
05/01/2018 15:30,6.72,0.33
05/01/2018 15:45,6.67,0.24
05/01/2018 16:00,6.92,0.28
05/01/2018 16:15,7.1,0.34
05/01/2018 16:30,7.38,0.43
05/01/2018 16:45,7.47,0.35
05/01/2018 17:00,7.81,0.42
05/01/2018 17:15,7.79,0.34
05/01/2018 17:30,7.92,0.26
05/01/2018 17:45,8.12,0.38
05/01/2018 18:00,8.13,0.32
05/01/2018 18:15,8.38,0.35
05/01/2018 18:30,8.7,0.49
05/01/2018 18:45,8.55,0.4
05/01/2018 19:00,8.66,0.34
05/01/2018 19:15,8.85,0.5
05/01/2018 19:30,8.81,0.45
05/01/2018 19:45,8.84,0.48
05/01/2018 20:00,8.75,0.42
05/01/2018 20:15,8.53,0.3
05/01/2018 20:30,8.29,0.27
05/01/2018 20:45,7.98,0.19
05/01/2018 21:00,7.65,0.04
05/01/2018 21:15,7.55,0.02
05/01/2018 21:30,7.48,0.09
05/01/2018 21:45,7.23,0.02
05/01/2018 22:00,6.96,-0.14
05/01/2018 22:15,7.64,-0.03
05/01/2018 22:30,7.97,-0.06
05/01/2018 22:45,7.28,-0.32
05/01/2018 23:00,6.77,-0.41
05/01/2018 23:15,6.98,-0.4
05/01/2018 23:30,7.06,-0.41
05/01/2018 23:45,7.12,-0.41
06/01/2018 00:00,7.1,-0.42
06/01/2018 00:15,7.42,-0.4
06/01/2018 00:30,7.82,-0.29
06/01/2018 00:45,7.03,-0.51
06/01/2018 01:00,6.41,-0.57
06/01/2018 01:15,6.02,-0.62
06/01/2018 01:30,5.62,-0.68
06/01/2018 01:45,5.29,-0.73
06/01/2018 02:00,5.06,-0.82
06/01/2018 02:15,5.41,-0.78
06/01/2018 02:30,5.4,-0.79
06/01/2018 02:45,5.06,-0.81
06/01/2018 03:00,4.83,-0.89
06/01/2018 03:15,4.85,-0.85
06/01/2018 03:30,4.79,-0.88
06/01/2018 03:45,4.69,-0.89
06/01/2018 04:00,4.59,-0.82
06/01/2018 04:15,4.58,-0.81
06/01/2018 04:30,4.54,-0.83
06/01/2018 04:45,4.43,-0.89
06/01/2018 05:00,4.48,-0.95
06/01/2018 05:15,4.48,-0.92
06/01/2018 05:30,4.53,-0.86
06/01/2018 05:45,4.53,-0.89
06/01/2018 06:00,4.5,-0.83
06/01/2018 06:15,4.65,-0.81
06/01/2018 06:30,4.82,-0.73
06/01/2018 06:45,4.89,-0.71
06/01/2018 07:00,4.9,-0.7
06/01/2018 07:15,5.09,-0.7
06/01/2018 07:30,5.25,-0.68
06/01/2018 07:45,5.3,-0.61
06/01/2018 08:00,5.31,-0.57
06/01/2018 08:15,5.25,-0.43
06/01/2018 08:30,5.43,-0.41
06/01/2018 08:45,5.47,-0.34
06/01/2018 09:00,5.59,-0.25
06/01/2018 09:15,5.74,-0.2
06/01/2018 09:30,5.89,-0.21
06/01/2018 09:45,6.02,-0.07
06/01/2018 10:00,6.14,-0.15
06/01/2018 10:15,6.29,-0.01
06/01/2018 10:30,6.35,-0.01
06/01/2018 10:45,6.6,0.13
06/01/2018 11:00,6.8,0.19
06/01/2018 11:15,6.79,0.19
06/01/2018 11:30,6.93,0.17
06/01/2018 11:45,7.1,0.29
06/01/2018 12:00,7.27,0.31
06/01/2018 12:15,7.48,0.4
06/01/2018 12:30,7.56,0.34
06/01/2018 12:45,7.53,0.35
06/01/2018 13:00,7.63,0.4
06/01/2018 13:15,7.66,0.34
06/01/2018 13:30,7.88,0.45
06/01/2018 13:45,7.73,0.41
06/01/2018 14:00,7.99,0.46
06/01/2018 14:15,7.95,0.41
06/01/2018 14:30,8.01,0.48
06/01/2018 14:45,8.02,0.41
06/01/2018 15:00,8.3,0.51
06/01/2018 15:15,8.27,0.46
06/01/2018 15:30,8.43,0.49
06/01/2018 15:45,8.5,0.5
06/01/2018 16:00,8.78,0.58
06/01/2018 16:15,8.72,0.57
06/01/2018 16:30,8.93,0.58
06/01/2018 16:45,9.17,0.62
06/01/2018 17:00,9.22,0.62
06/01/2018 17:15,9.39,0.66
06/01/2018 17:30,9.53,0.77
06/01/2018 17:45,9.51,0.71
06/01/2018 18:00,9.63,0.73
06/01/2018 18:15,9.57,0.68
06/01/2018 18:30,9.58,0.68
06/01/2018 18:45,9.6,0.68
06/01/2018 19:00,9.44,0.58
06/01/2018 19:15,9.55,0.59
06/01/2018 19:30,9.56,0.63
06/01/2018 19:45,9.46,0.61
06/01/2018 20:00,9.17,0.54
06/01/2018 20:15,8.9,0.43
06/01/2018 20:30,8.73,0.41
06/01/2018 20:45,8.48,0.33
06/01/2018 21:00,8.16,0.31
06/01/2018 21:15,7.89,0.25
06/01/2018 21:30,7.68,0.12
06/01/2018 21:45,7.42,0.1
06/01/2018 22:00,7.15,-0.01
06/01/2018 22:15,7.65,0.04
06/01/2018 22:30,7.94,0.03
06/01/2018 22:45,7.27,-0.17
06/01/2018 23:00,6.64,-0.28
06/01/2018 23:15,6.74,-0.4
06/01/2018 23:30,7.02,-0.39
06/01/2018 23:45,6.96,-0.42
07/01/2018 00:00,6.92,-0.4
07/01/2018 00:15,7.24,-0.44
07/01/2018 00:30,7.48,-0.44
07/01/2018 00:45,6.71,-0.55
07/01/2018 01:00,5.91,-0.67
07/01/2018 01:15,5.47,-0.74
07/01/2018 01:30,5.18,-0.73
07/01/2018 01:45,5.04,-0.83
07/01/2018 02:00,4.87,-0.77
07/01/2018 02:15,5.04,-0.84
07/01/2018 02:30,5.06,-0.89
07/01/2018 02:45,4.78,-0.85
07/01/2018 03:00,4.5,-0.93
07/01/2018 03:15,4.58,-0.91
07/01/2018 03:30,4.41,-1.01
07/01/2018 03:45,4.39,-1
07/01/2018 04:00,4.35,-1.01
07/01/2018 04:15,4.3,-1.06
07/01/2018 04:30,4.42,-1.03
07/01/2018 04:45,4.26,-1.08
07/01/2018 05:00,4.38,-1.05
07/01/2018 05:15,4.31,-1.12
07/01/2018 05:30,4.29,-1.08
07/01/2018 05:45,4.17,-1.1
07/01/2018 06:00,4.32,-1.06
07/01/2018 06:15,4.22,-1.15
07/01/2018 06:30,4.3,-1.1
07/01/2018 06:45,4.3,-1.17
07/01/2018 07:00,4.09,-1.21
07/01/2018 07:15,4.2,-1.19
07/01/2018 07:30,4.26,-1.19
07/01/2018 07:45,4.43,-1.01
07/01/2018 08:00,4.41,-1.04
07/01/2018 08:15,4.15,-1.1
07/01/2018 08:30,4.02,-1.1
07/01/2018 08:45,3.98,-1.06
07/01/2018 09:00,3.84,-1.11
07/01/2018 09:15,4,-1.09
07/01/2018 09:30,4.17,-1.04
07/01/2018 09:45,4.17,-0.99
07/01/2018 10:00,4.15,-0.91
07/01/2018 10:15,4.02,-0.92
07/01/2018 10:30,3.78,-0.96
07/01/2018 10:45,3.4,-0.92
07/01/2018 11:00,3.56,-0.86
07/01/2018 11:15,3.65,-0.94
07/01/2018 11:30,3.52,-0.85
07/01/2018 11:45,3.58,-0.82
07/01/2018 12:00,4.02,-0.84
07/01/2018 12:15,4.01,-0.77
07/01/2018 12:30,4.23,-0.67
07/01/2018 12:45,4.17,-0.67
07/01/2018 13:00,3.94,-0.72
07/01/2018 13:15,3.93,-0.68
07/01/2018 13:30,4.08,-0.65
07/01/2018 13:45,4.09,-0.57
07/01/2018 14:00,3.93,-0.64
07/01/2018 14:15,4.14,-0.69
07/01/2018 14:30,3.92,-0.62
07/01/2018 14:45,4.17,-0.65
07/01/2018 15:00,4.74,-0.55
07/01/2018 15:15,4.58,-0.47
07/01/2018 15:30,4.72,-0.45
07/01/2018 15:45,4.71,-0.49
07/01/2018 16:00,4.97,-0.39
07/01/2018 16:15,5.17,-0.41
07/01/2018 16:30,5.52,-0.4
07/01/2018 16:45,5.65,-0.3
07/01/2018 17:00,5.89,-0.32
07/01/2018 17:15,6.26,-0.24
07/01/2018 17:30,6.43,-0.2
07/01/2018 17:45,6.65,-0.11
07/01/2018 18:00,6.88,-0.05
07/01/2018 18:15,7.23,0.06
07/01/2018 18:30,7.04,-0.03
07/01/2018 18:45,7.25,-0.02
07/01/2018 19:00,7.17,-0.01
07/01/2018 19:15,6.89,-0.12
07/01/2018 19:30,6.82,-0.17
07/01/2018 19:45,6.9,-0.17
07/01/2018 20:00,6.93,-0.08
07/01/2018 20:15,6.78,-0.22
07/01/2018 20:30,6.53,-0.26
07/01/2018 20:45,6.28,-0.42
07/01/2018 21:00,6.48,-0.29
07/01/2018 21:15,6.43,-0.23
07/01/2018 21:30,6.16,-0.36
07/01/2018 21:45,6.08,-0.31
07/01/2018 22:00,5.9,-0.4
07/01/2018 22:15,6.45,-0.46
07/01/2018 22:30,6.89,-0.43
07/01/2018 22:45,6.29,-0.63
07/01/2018 23:00,5.83,-0.72
07/01/2018 23:15,6.28,-0.62
07/01/2018 23:30,6.44,-0.56
07/01/2018 23:45,6.48,-0.69
08/01/2018 00:00,6.47,-0.69
08/01/2018 00:15,6.78,-0.66
08/01/2018 00:30,7.4,-0.56
08/01/2018 00:45,6.68,-0.73
08/01/2018 01:00,5.99,-0.8
08/01/2018 01:15,5.41,-0.9
08/01/2018 01:30,4.97,-0.93
08/01/2018 01:45,4.74,-1.01
08/01/2018 02:00,4.76,-0.93
08/01/2018 02:15,5.13,-0.85
08/01/2018 02:30,5.11,-0.95
08/01/2018 02:45,4.6,-0.96
08/01/2018 03:00,4.42,-0.99
08/01/2018 03:15,4.47,-0.98
08/01/2018 03:30,4.48,-0.96
08/01/2018 03:45,4.55,-0.89
08/01/2018 04:00,4.4,-0.91
08/01/2018 04:15,4.35,-0.94
08/01/2018 04:30,4.33,-0.97
08/01/2018 04:45,4.27,-0.93
08/01/2018 05:00,4.38,-0.93
08/01/2018 05:15,4.56,-0.87
08/01/2018 05:30,4.54,-0.74
08/01/2018 05:45,4.69,-0.79
08/01/2018 06:00,4.78,-0.81
08/01/2018 06:15,4.96,-0.7
08/01/2018 06:30,4.98,-0.7
08/01/2018 06:45,5.21,-0.62
08/01/2018 07:00,5.45,-0.54
08/01/2018 07:15,5.68,-0.38
08/01/2018 07:30,5.79,-0.39
08/01/2018 07:45,5.68,-0.32
08/01/2018 08:00,5.37,-0.39
08/01/2018 08:15,5.16,-0.28
08/01/2018 08:30,5.04,-0.35
08/01/2018 08:45,5.14,-0.25
08/01/2018 09:00,4.84,-0.34
08/01/2018 09:15,4.81,-0.38
08/01/2018 09:30,4.66,-0.36
08/01/2018 09:45,4.59,-0.33
08/01/2018 10:00,4.68,-0.35
08/01/2018 10:15,4.65,-0.26
08/01/2018 10:30,4.75,-0.22
08/01/2018 10:45,4.77,-0.21
08/01/2018 11:00,4.96,-0.04
08/01/2018 11:15,4.33,-0.26
08/01/2018 11:30,4.25,-0.22
08/01/2018 11:45,4.13,-0.24
08/01/2018 12:00,4.29,0.02
08/01/2018 12:15,4.18,-0.06
08/01/2018 12:30,4.02,-0.05
08/01/2018 12:45,4.21,-0.03
08/01/2018 13:00,4.01,-0.15
08/01/2018 13:15,4.1,-0.02
08/01/2018 13:30,4.04,-0.06
08/01/2018 13:45,4.33,0.04
08/01/2018 14:00,4.21,-0.08
08/01/2018 14:15,4.19,-0.01
08/01/2018 14:30,4.26,-0.09
08/01/2018 14:45,4.57,-0.17
08/01/2018 15:00,4.65,-0.17
08/01/2018 15:15,4.55,-0.08
08/01/2018 15:30,5.11,0
08/01/2018 15:45,4.95,-0.09
08/01/2018 16:00,5.1,-0.09
08/01/2018 16:15,4.85,-0.21
08/01/2018 16:30,4.81,-0.26
08/01/2018 16:45,5.04,-0.32
08/01/2018 17:00,4.81,-0.41
08/01/2018 17:15,5.27,-0.41
08/01/2018 17:30,5.85,-0.18
08/01/2018 17:45,6.05,-0.1
08/01/2018 18:00,5.85,-0.23
08/01/2018 18:15,5.99,-0.26
08/01/2018 18:30,6.28,-0.17
08/01/2018 18:45,6.16,-0.29
08/01/2018 19:00,6.3,-0.26
08/01/2018 19:15,6.36,-0.2
08/01/2018 19:30,6.19,-0.34
08/01/2018 19:45,6.25,-0.28
08/01/2018 20:00,6.2,-0.3
08/01/2018 20:15,6.05,-0.42
08/01/2018 20:30,5.81,-0.48
08/01/2018 20:45,5.76,-0.49
08/01/2018 21:00,5.57,-0.54
08/01/2018 21:15,5.64,-0.51
08/01/2018 21:30,5.48,-0.62
08/01/2018 21:45,5.3,-0.71
08/01/2018 22:00,5.23,-0.71
08/01/2018 22:15,5.74,-0.79
08/01/2018 22:30,6.24,-0.73
08/01/2018 22:45,5.82,-0.85
08/01/2018 23:00,5.43,-0.91
08/01/2018 23:15,5.84,-0.93
08/01/2018 23:30,5.97,-0.95
08/01/2018 23:45,6.13,-0.87
09/01/2018 00:00,6.03,-0.95
09/01/2018 00:15,6.26,-0.92
09/01/2018 00:30,6.79,-0.84
09/01/2018 00:45,6.24,-0.93
09/01/2018 01:00,5.64,-1.05
09/01/2018 01:15,5.28,-1.11
09/01/2018 01:30,4.85,-1.15
09/01/2018 01:45,4.51,-1.22
09/01/2018 02:00,4.31,-1.23
09/01/2018 02:15,4.85,-1.05
09/01/2018 02:30,4.85,-1.08
09/01/2018 02:45,4.5,-1.02
09/01/2018 03:00,4.26,-1.14
09/01/2018 03:15,4.29,-1.1
09/01/2018 03:30,4.18,-1.14
09/01/2018 03:45,4.15,-1.06
09/01/2018 04:00,4.04,-1.12
09/01/2018 04:15,4.11,-1.11
09/01/2018 04:30,4.26,-1.01
09/01/2018 04:45,4.31,-1.01
09/01/2018 05:00,4.25,-1.01
09/01/2018 05:15,4.33,-0.99
09/01/2018 05:30,4.4,-1
09/01/2018 05:45,4.56,-0.9
09/01/2018 06:00,4.61,-0.92
09/01/2018 06:15,4.96,-0.84
09/01/2018 06:30,4.93,-0.83
09/01/2018 06:45,5,-0.85
09/01/2018 07:00,5.23,-0.72
09/01/2018 07:15,5.49,-0.65
09/01/2018 07:30,5.55,-0.59
09/01/2018 07:45,5.53,-0.5
09/01/2018 08:00,5.42,-0.4
09/01/2018 08:15,4.84,-0.46
09/01/2018 08:30,4.86,-0.34
09/01/2018 08:45,5.05,-0.28
09/01/2018 09:00,4.85,-0.24
09/01/2018 09:15,4.61,-0.33
09/01/2018 09:30,4.5,-0.3
09/01/2018 09:45,4.36,-0.34
09/01/2018 10:00,4.47,-0.27
09/01/2018 10:15,4.64,-0.09
09/01/2018 10:30,4.46,-0.14
09/01/2018 10:45,4.47,-0.17
09/01/2018 11:00,4.41,-0.14
09/01/2018 11:15,4.39,-0.19
09/01/2018 11:30,4.41,-0.09
09/01/2018 11:45,4.29,-0.08
09/01/2018 12:00,4.46,-0.17
09/01/2018 12:15,4.37,-0.17
09/01/2018 12:30,4.17,-0.19
09/01/2018 12:45,3.85,-0.22
09/01/2018 13:00,3.88,-0.05
09/01/2018 13:15,3.87,-0.12
09/01/2018 13:30,3.63,-0.22
09/01/2018 13:45,3.47,-0.26
09/01/2018 14:00,3.42,-0.29
09/01/2018 14:15,3.67,-0.18
09/01/2018 14:30,3.53,-0.19
09/01/2018 14:45,3.45,-0.3
09/01/2018 15:00,3.73,-0.27
09/01/2018 15:15,3.57,-0.31
09/01/2018 15:30,3.69,-0.34
09/01/2018 15:45,3.56,-0.41
09/01/2018 16:00,3.82,-0.33
09/01/2018 16:15,3.88,-0.34
09/01/2018 16:30,3.98,-0.37
09/01/2018 16:45,4.03,-0.41
09/01/2018 17:00,4.29,-0.44